Regional Weather Roundup
Issued by NWS

Home | Current Version | Previous Version | Text Only | Print | Product List | Glossary Off
Versions: 1 2 3 4 5 6 7 8 9 10 11 12 13 14 15 16 17 18 19 20 21 22 23 24 25 26 27 28 29 30 31 32 33 34 35 36 37 38 39 40 41 42 43 44 45 46 47 48 49 50

000
ASUS43 KLMK 262202
RWRKY
KENTUCKY REGIONAL WEATHER ROUNDUP
NATIONAL WEATHER SERVICE LOUISVILLE KY
600 PM EDT MON SEP 26 2016

NOTE "FAIR" INDICATES FEW OR NO CLOUDS BELOW 12,000 FEET
WITH NO SIGNIFICANT WEATHER AND/OR OBSTRUCTIONS TO VISIBILITY.

KYZ001>023-026-027-061>063-070>075-262300-
WESTERN AND SOUTH CENTRAL KENTUCKY

CITY           SKY/WX    TMP DP  RH WIND       PRES   REMARKS
PADUCAH        SUNNY     75  52  44 N6        30.07F
HENDERSON      SUNNY     73  45  35 NW9       30.06F
OWENSBORO      NOT AVBL
HOPKINSVILLE   PTSUNNY   68  54  60 N8        30.07F
BOWLING GREEN  CLOUDY    68  56  65 NW6       30.07F
GLASGOW        CLOUDY    65  58  75 NW5       30.07F
$$

KYZ024-025-028>034-038-045-046-053-262300-
NORTH CENTRAL KENTUCKY

CITY           SKY/WX    TMP DP  RH WIND       PRES   REMARKS
LOUISVILLE/SDF CLOUDY    69  50  50 W8        30.05F
LOUISVILLE/LOU CLOUDY    69  51  52 NW6       30.06S
FORT KNOX      CLOUDY    65  53  64 W5        30.05F
$$

KYZ035>037-039>044-047>052-055>060-089>105-262300-
NORTHEAST KENTUCKY

CITY           SKY/WX    TMP DP  RH WIND       PRES   REMARKS
LEXINGTON      CLOUDY    65  54  67 NW6       30.06R
COVINGTON      CLOUDY    65  50  58 W8        30.03S
FRANKFORT      CLOUDY    67  52  58 NW6       30.04S
$$

KYZ054-064>069-076>088-106>120-262300-
SOUTHEAST KENTUCKY

CITY           SKY/WX    TMP DP  RH WIND       PRES   REMARKS
JACKSON        PTSUNNY   70  62  76 VRB7      30.02S
LONDON         CLOUDY    74  61  63 W7        30.03S
SOMERSET       CLOUDY    68  61  77 N6        30.05S
MIDDLESBORO    MOSUNNY   78  65  63 NW5       30.02S
MONTICELLO     CLOUDY    70  64  81 NW8       30.06S
$$




USA.gov is the U.S. government's official web portal to all federal, state and local government web resources and services.